Regional Weather Roundup
Issued by NWS

Home | Current Version | Previous Version | Graphics & Text | Print | Product List | Glossary Off
Versions: 1 2 3 4 5 6 7 8 9 10 11 12 13 14 15 16 17 18 19 20 21 22 23 24 25 26 27 28 29 30 31 32 33 34 35 36 37 38 39 40 41 42 43 44 45 46 47 48 49 50

000
ASUS43 KMKX 282010
RWRWI

WISCONSIN REGIONAL WEATHER ROUNDUP
NATIONAL WEATHER SERVICE MILWAUKEE/SULLIVAN WI
300 PM CDT SAT MAR 28 2015

NOTE: "FAIR" INDICATES FEW OR NO CLOUDS BELOW 12,000 FEET WITH NO
SIGNIFICANT WEATHER AND/OR OBSTRUCTIONS TO VISIBILITY.

WIZ001-002-006>008-014>016-023>028-282100-
NORTHWEST WISCONSIN

CITY           SKY/WX    TMP DP  RH WIND       PRES   REMARKS
SUPERIOR ARPT  SUNNY     44  10  25 SW13G21   30.10F
ASHLAND        SUNNY     44   6  21 S12G20    30.13F
HAYWARD        SUNNY     40   9  28 S16G22    30.13F WCI  31
SIREN          SUNNY     42   2  19 SW14      30.13F
CUMBERLAND     SUNNY     37  10  32 S12G18    30.14F WCI  30
RICE LAKE      SUNNY     41   9  27 S9G17     30.18F
CHETEK         SUNNY     41  10  27 S9G16     30.16F
LADYSMITH      SUNNY     41  10  29 S12G17    30.18F
EAU CLAIRE     SUNNY     42   9  25 S13       30.18F
MENOMONIE      SUNNY     42   7  23 S14G20    30.19F
NEW RICHMOND   SUNNY     40  10  28 S13G21    30.17F WCI  33
OSCEOLA        SUNNY     42  13  30 S16       30.19F
$$

WIZ003>005-009-010-017-018-282100-
NORTH CENTRAL WISCONSIN

CITY           SKY/WX    TMP DP  RH WIND       PRES   REMARKS
MANITOWISH WTR SUNNY     39   8  28 SW9       30.11F WCI  33
ARBOR VITAE    SUNNY     39   8  27 SW3G16    30.12F
WOODRUFF       SUNNY     39   8  27 SW3G16    30.12F
RHINELANDER    SUNNY     39  10  30 SW10      30.15F WCI  32
EAGLE RIVER    SUNNY     37   6  28 SW7G17    30.13F WCI  31
LAND O LAKES   SUNNY     38   3  22 SW5       30.13F WCI  35
PHILLIPS       SUNNY     38  10  31 SW13G18   30.14F WCI  30
TOMAHAWK       SUNNY     37  10  32 S5        30.17F WCI  34
MEDFORD        SUNNY     35  14  41 S9        30.17F WCI  28
MERRILL        SUNNY     38  13  35 SW10      30.18F WCI  31
$$

WIZ029-030-035-036-043>047-282100-
CENTRAL WISCONSIN

CITY           SKY/WX    TMP DP  RH WIND       PRES   REMARKS
WAUSAU         SUNNY     37   8  30 SW10      30.18F WCI  30
MOSINEE        SUNNY     37  10  32 S9        30.20F WCI  31
MARSHFIELD     SUNNY     42   9  25 S13G18    30.19F
STEVENS POINT  SUNNY     37   8  29 W7        30.21F WCI  32
WAUPACA        SUNNY     43   2  18 SW6       30.24F
WAUTOMA        SUNNY     41   6  23 S8        30.24F
WISC RAPIDS    SUNNY     40   3  21 S7        30.23F
CAMP DOUGLAS   SUNNY     41  10  28 S9        30.22F
$$

WIZ011>013-019>022-031-037>040-048>050-282100-
NORTHEAST WISCONSIN

CITY           SKY/WX    TMP DP  RH WIND       PRES   REMARKS
ANTIGO         SUNNY     36  15  43 SW10      30.18F WCI  28
SHAWANO        SUNNY     41  13  32 SW9       30.24F
OCONTO         SUNNY     36  17  45 SE12      30.24F WCI  28
STURGEON BAY   SUNNY     34  18  51 S8        30.27F WCI  27
GREEN BAY      SUNNY     36  19  50 SW12      30.26F WCI  28
MANITOWOC      SUNNY     33  22  63 S14       30.28F WCI  23
APPLETON       SUNNY     37  10  32 SW9       30.25F WCI  31
CLINTONVILLE   SUNNY     39  10  30 SW12      30.24F WCI  32
OSHKOSH        SUNNY     37  11  34 MISG      30.25F
$$

WIZ032>034-041-042-053>061-282100-
SOUTHWEST WISCONSIN

CITY           SKY/WX    TMP DP  RH WIND       PRES   REMARKS
LA CROSSE      SUNNY     42  11  28 S14       30.24F
SPARTA         SUNNY     41   8  26 S10       30.24F
VIROQUA        SUNNY     37  14  39 SW9       30.23F WCI  30
BOSCOBEL       SUNNY     39  15  37 SW7       30.28F WCI  34
PRAIRIE DU CHI SUNNY     38  11  32 CALM      30.26F
PLATTEVILLE    SUNNY     38  15  38 S7        30.26F WCI  33
$$

WIZ056-057-062-063-064-067-068-282100-
SOUTH CENTRAL WISCONSIN

CITY           SKY/WX    TMP DP  RH WIND       PRES   REMARKS
REEDSBURG      SUNNY     38  12  34 S8        30.24F WCI  32
BARABOO/DELLS  SUNNY     39   9  28 S7        30.24F WCI  34
LONE ROCK      SUNNY     37  10  32 S8        30.28F WCI  31
MINERAL POINT  SUNNY     36  12  38 SW3       30.26F
MADISON        MOSUNNY   37   9  31 S9        30.27F WCI  30
MIDDLETON      SUNNY     39   7  26 SW7G17    30.27F WCI  34
WATERTOWN      SUNNY     38  10  32 SW6       30.27F WCI  33
MONROE         SUNNY     36  14  41 SW5       30.26F WCI  32
JANESVILLE     SUNNY     39   7  26 S5        30.28F
$$

WIZ051-052-058>065-066-070>072-282100-
SOUTHEAST WISCONSIN

CITY           SKY/WX    TMP DP  RH WIND       PRES   REMARKS
MILWAUKEE      MOSUNNY   33  15  47 SE12      30.30F WCI  24
WAUKESHA       MOSUNNY   36  10  35 SE5       30.28F WCI  32
MILWAUKEE/TIMM SUNNY     36  14  41 SE9       30.29F WCI  29
RACINE         SUNNY     32  14  47 E12       30.32F WCI  23
BURLINGTON     SUNNY     37  11  34 CALM      30.28F
KENOSHA        SUNNY     33  14  45 SE9       30.30F WCI  25
FOND DU LAC    SUNNY     38  10  31 SW9       30.26F WCI  31
SHEBOYGAN      SUNNY     36  20  52 SE8       30.27F WCI  30
WEST BEND      SUNNY     36   9  32 CALM      30.26F
JUNEAU         SUNNY     36  10  33 S8        30.27F WCI  30
$$

LSZ147-162-282100-
LAKE SUPERIOR

STATION/POSITION TIME  TEMP    WIND        PRES    WAVE
                       AIR SEA DIR/SP/G            HT/PER
                 (UTC) (F)     (DEG/KT/KT) (MB)    (FT/S)
DEVILS ISLAND    2000   31      70/  5/  6 1021.4F
PORT WING        1900   33      20/  6/  7 1021.3
SAXON HARBOR     1940   33      40/  7/ 10 1020.7F
$$

LMZ867-665-643>646-282100-
LAKE MICHIGAN

STATION/POSITION TIME  TEMP    WIND        PRES    WAVE
                       AIR SEA DIR/SP/G            HT/PER
                 (UTC) (F)     (DEG/KT/KT) (MB)    (FT/S)
NORTHPORT PIER   1900   27     140/ 13/ 16 1025.1F
SISTER BAY       1917   41     270/ 10/ 12   N/A
KEWAUNEE LAKESHO 1900   28     170/ 14/ 16 1024.8F
SHEBOYGAN LAKESH 2000   28     150/ 12/ 13 1026.8F
PORT WASHINGTON  1940   31     150/  9/ 12 1026.4F
MILWAUKEE LAKESH 1900   27     130/  9/ 11   N/A
KENOSHA   LAKESH 2000   30     130/  9/ 11 1026.4F
$$

TC  - TEMPERATURE IN CELSIUS
VSB - VISIBILITY IN STATUTE MILES
WCI - WIND CHILL INDEX
HX  - HEAT INDEX




USA.gov is the U.S. government's official web portal to all federal, state and local government web resources and services.